Location: El Mouella
(16.4949°N, 9.1594°W)
Time: 14:30:50
(UTC+00:00)

CZ-2C R/B - Pass Details

Date: 02 June 2020
Orbit: 785 x 870 km, 98.3° (Epoch: 04 July)

Event Time Altitude Azimuth Distance (km) Brightness Sun altitude
Rises 21:06:29 0° 357° (N) 3,450 6.4 -25.9°
Reaches altitude 10° 21:09:05 10° 348° (NNW) 2,509 5.7 -26.4°
Maximum altitude 21:14:01 33° 286° (WNW) 1,412 4.3 -27.4°
Drops below altitude 10° 21:18:54 10° 223° (SW) 2,478 5.2 -28.3°
Sets 21:21:28 0° 214° (SW) 3,402 5.8 -28.8°
